Wind_Speed
22 20 20 20 19 19 16 14 15 14 13 11 10 9 7 5 4 5 7 11 18 20 20 20 20 20 19 19 18 17 16 15 14 14 14 15 15 15 14 14 14 15 15 15 15 14 13 12 11 9 8 6 5 4 3 2 2 3 4 4 5 6 7
25 20 18 17 17 17 16 16 16 16 14 12 11 9 7 5 4 5 8 10 16 21 22 21 21 21 21 21 19 18 17 16 16 15 15 15 15 15 15 15 15 15 15 15 15 14 13 12 11 9 8 7 6 5 4 4 3 2 3 3 4 6 7
24 22 21 19 18 16 15 17 18 18 16 13 11 9 8 7 6 7 9 10 14 20 23 23 23 23 23 22 21 20 18 17 17 16 16 16 16 16 16 17 17 17 16 15 15 14 13 12 11 9 8 7 7 7 6 5 4 3 3 4 5 7 9
25 24 24 24 24 20 17 18 19 18 16 14 12 10 9 9 10 9 9 10 11 17 22 24 25 25 25 24 22 21 20 19 18 18 18 17 17 16 17 17 18 17 17 16 16 15 13 12 11 9 8 7 7 7 7 7 6 5 5 6 8 9 11
30 28 26 25 25 22 18 17 18 17 16 15 13 12 11 11 11 10 9 9 10 14 21 26 27 28 28 26 24 23 21 21 20 19 19 19 18 17 17 17 18 18 18 17 16 15 14 13 12 10 8 7 7 7 7 7 8 8 9 10 11 11 11
31 31 25 20 20 20 19 18 16 15 15 15 14 14 13 13 12 11 9 8 9 12 18 24 26 28 28 28 26 25 23 22 21 20 20 20 19 18 18 18 18 18 18 17 17 16 15 14 13 11 9 7 7 7 8 9 10 11 11 12 11 11 10
30 32 26 20 20 21 22 22 19 17 16 15 16 16 15 14 13 12 11 9 8 9 12 18 23 25 27 28 27 26 24 23 22 22 21 21 20 20 20 19 19 19 19 18 17 17 16 15 14 12 9 8 7 7 9 11 11 12 11 11 10 9 8
31 32 29 25 23 23 24 25 23 21 19 17 16 16 15 15 15 14 13 12 10 7 8 13 19 23 25 27 27 26 25 25 24 23 23 22 21 21 21 20 20 20 20 19 18 18 17 16 15 13 10 9 9 8 9 11 11 11 11 10 9 8 7
32 32 31 29 26 23 23 25 25 23 21 19 17 16 16 17 17 16 16 16 13 9 8 11 16 21 24 26 27 28 27 26 25 24 23 22 21 21 21 22 22 21 21 20 20 19 18 17 16 14 11 10 10 9 10 10 11 11 10 9 8 7 7
30 31 31 31 28 24 24 25 25 23 21 20 20 19 19 18 18 18 18 17 14 11 10 11 13 18 22 25 27 28 28 27 26 25 24 22 22 21 22 23 23 23 22 22 21 20 19 18 17 15 13 12 11 11 11 11 11 11 10 9 8 7 6
31 30 30 31 29 25 25 26 25 23 20 19 20 21 21 20 20 20 19 18 16 13 12 11 12 15 19 23 26 28 28 27 25 24 23 22 22 22 23 23 23 23 23 23 22 21 20 19 18 17 15 14 14 13 13 13 13 12 11 10 8 7 5
32 30 29 28 26 25 26 26 26 26 25 22 21 21 22 22 21 21 20 20 19 16 14 12 12 13 16 20 23 26 26 26 25 23 22 23 23 23 24 24 24 24 23 23 23 22 22 20 19 19 18 17 16 15 15 15 14 14 12 10 9 8 6
34 33 31 30 26 26 27 26 26 27 27 27 26 24 23 23 23 23 23 22 21 19 16 14 12 13 14 16 19 22 24 25 24 23 23 23 24 24 25 24 24 24 24 24 24 23 22 21 21 20 20 19 18 17 17 16 16 16 14 12 10 9 8
32 34 36 36 33 31 29 26 27 28 28 29 29 27 26 27 27 27 26 26 25 22 19 16 14 13 14 14 15 17 20 22 23 23 23 24 24 25 25 25 24 24 25 25 24 23 22 22 22 22 21 20 19 18 18 17 17 17 16 14 13 11 10
31 32 35 37 36 34 31 29 30 31 31 31 30 28 29 30 30 30 30 30 29 26 22 20 18 16 15 14 14 15 17 19 20 22 22 23 23 23 24 24 25 25 25 25 24 23 23 23 24 23 23 22 20 19 18 18 18 18 18 17 16 14 12
35 33 34 36 37 37 35 35 35 36 36 36 35 33 33 33 33 32 31 31 31 29 27 25 21 19 17 16 16 16 15 16 16 18 20 21 22 22 23 23 24 25 25 25 25 24 23 23 24 24 23 23 21 20 18 18 18 19 19 20 19 17 15
37 34 33 35 37 38 38 37 36 36 37 39 39 38 38 38 37 35 34 34 34 33 32 29 25 22 21 19 19 17 15 14 14 14 16 19 20 22 22 23 24 24 25 25 26 25 24 24 24 24 24 24 22 21 19 19 19 20 20 21 21 20 17
36 35 33 33 34 36 38 37 35 33 35 38 39 40 41 41 40 39 39 39 38 38 38 35 30 25 23 22 21 19 17 15 14 13 14 15 18 20 22 23 23 23 24 25 26 26 25 24 24 24 25 24 23 22 20 20 21 21 20 21 22 22 20
36 36 35 34 34 35 36 38 38 36 35 37 39 40 40 41 41 40 40 40 40 40 40 38 35 30 26 24 22 20 19 17 15 14 13 14 16 18 20 22 22 23 23 25 26 27 26 24 24 24 25 24 23 22 22 21 22 22 21 21 22 24 23
40 39 38 38 39 39 38 39 40 39 37 37 38 38 38 39 39 39 40 39 38 37 37 37 36 33 28 24 22 20 20 19 17 15 15 15 15 16 18 20 22 23 24 25 26 27 27 26 25 25 25 25 24 23 23 22 22 22 23 22 23 24 24
43 42 42 42 42 43 42 41 41 41 40 39 39 39 38 38 38 39 41 39 36 33 33 34 34 31 25 21 20 20 19 19 18 17 16 15 15 15 16 19 21 23 24 25 25 26 28 28 27 26 26 26 25 24 23 23 23 23 23 23 23 23 24
47 46 45 45 45 44 43 44 44 42 41 40 40 41 41 40 38 38 40 38 34 32 32 31 30 29 25 21 19 19 19 19 19 18 17 17 15 15 16 17 20 23 24 25 25 25 27 29 28 27 27 26 26 25 24 23 23 23 23 24 24 23 24
53 52 50 48 47 46 45 46 46 44 42 41 41 42 43 41 39 38 38 37 35 34 34 33 30 27 26 23 19 19 19 19 19 20 19 18 16 15 16 17 19 22 24 24 24 24 25 27 29 29 28 27 26 25 25 24 24 24 24 24 25 24 23
56 56 55 52 50 49 48 47 47 46 44 43 42 43 44 43 41 40 39 38 36 35 35 33 29 26 26 23 20 20 20 21 21 21 21 19 17 16 17 17 19 21 23 24 24 24 25 26 28 30 30 29 27 26 25 25 25 25 25 25 25 24 23
57 57 56 55 54 52 50 48 47 46 45 44 43 42 43 44 42 40 40 38 36 35 33 30 28 27 26 24 21 21 22 23 23 23 22 20 19 18 18 18 19 21 22 24 24 24 25 26 27 28 29 29 29 28 27 26 26 25 25 25 25 24 23
56 57 57 57 57 55 52 51 49 48 46 45 43 43 43 43 42 40 40 38 36 34 32 29 28 29 28 26 25 24 24 24 25 25 24 22 21 20 19 20 20 21 22 23 24 25 25 25 25 27 28 29 29 29 28 27 26 26 26 26 25 25 24
55 57 59 59 60 58 56 54 52 50 49 47 46 45 44 44 42 40 39 38 36 34 30 27 28 31 31 29 28 27 25 25 25 26 26 25 24 23 22 21 21 21 22 23 24 25 25 24 25 25 26 27 28 29 29 28 28 27 27 26 26 26 25
58 59 63 63 61 59 59 57 55 52 51 50 48 47 45 44 42 41 39 37 35 33 30 28 29 32 32 30 30 28 26 25 25 27 28 28 27 26 25 23 23 23 23 24 24 25 25 25 25 25 26 27 27 28 28 29 28 28 28 27 27 27 26
59 58 63 65 62 59 59 58 57 54 52 51 50 48 46 44 41 40 39 37 34 32 32 31 32 33 33 32 31 29 28 27 27 28 28 29 28 28 27 26 25 24 24 25 25 25 26 26 25 26 26 26 27 26 27 27 28 27 27 27 27 28 28
59 56 58 61 59 57 57 57 56 55 53 52 50 48 47 45 42 40 39 36 34 35 35 35 35 35 35 35 33 30 29 28 29 30 30 30 30 30 30 29 27 26 26 26 26 26 26 26 26 26 26 27 27 26 26 26 26 26 26 27 27 28 28
61 57 55 57 57 56 55 55 55 54 53 51 50 49 47 45 43 40 39 37 37 38 38 38 37 37 37 36 34 31 30 29 30 31 31 31 31 31 31 31 30 29 27 27 27 27 27 27 26 26 26 27 27 26 26 25 25 25 26 27 27 28 28
63 60 57 57 56 55 55 54 53 52 51 51 50 49 47 45 43 40 40 40 40 40 40 40 39 39 38 36 34 31 30 30 31 31 32 33 32 32 33 33 32 30 29 28 27 27 27 27 27 26 26 27 28 27 27 27 26 25 26 27 28 27 28
65 62 58 57 57 55 54 53 53 52 51 50 50 49 47 45 44 41 41 42 41 41 41 41 40 39 38 36 34 32 31 30 30 31 32 33 34 34 34 35 34 32 30 27 26 25 26 27 27 27 26 27 28 29 29 28 26 26 27 28 28 27 28
67 64 60 58 58 56 54 53 52 51 49 48 48 48 47 46 45 44 43 43 43 41 42 42 41 40 38 37 36 34 32 31 31 31 33 34 35 35 35 34 34 33 30 27 25 25 26 27 27 28 28 28 30 30 30 29 27 26 28 29 29 29 30
66 66 61 59 59 57 54 52 51 49 47 45 45 45 46 46 46 45 45 45 44 43 43 43 43 41 40 39 38 36 36 34 33 34 34 35 35 36 35 35 35 34 31 29 27 27 27 28 28 29 30 30 31 31 30 29 28 28 29 31 31 31 30
68 68 63 58 57 56 54 52 51 49 47 46 44 44 45 46 46 46 46 46 46 45 45 45 44 43 42 41 41 40 40 40 39 37 36 35 36 37 37 36 37 36 33 30 29 29 28 29 29 30 31 32 31 31 30 30 30 30 30 31 31 30 29
71 71 67 60 55 52 50 51 51 50 49 48 47 45 45 45 46 46 47 48 48 47 47 46 46 45 44 44 44 44 44 44 43 41 39 38 37 40 40 38 37 37 33 30 30 31 30 30 31 32 33 32 31 31 31 31 31 31 30 30 30 30 29
72 72 71 66 58 50 48 50 51 51 50 49 48 47 46 46 45 46 47 49 48 48 48 48 47 47 46 46 46 46 45 44 44 44 44 44 44 43 42 40 38 37 33 30 31 31 31 31 32 32 33 32 32 32 31 31 31 30 30 30 30 30 30
Wind_Direction
243 248 249 242 240 246 246 236 231 226 221 216 200 185 179 181 202 232 244 223 208 206 210 212 209 205 202 200 198 198 193 187 186 190 198 200 192 180 174 177 179 178 177 174 172 170 171 171 173 176 177 177 188 197 195 187 157 132 119 109 101 100 100
251 245 237 240 246 249 246 241 236 230 224 219 208 194 186 185 199 225 240 232 214 206 205 206 208 207 205 203 200 200 196 190 188 190 198 205 201 190 182 181 182 182 181 178 175 175 176 177 179 184 187 188 197 209 212 210 196 161 134 120 110 106 106
252 241 233 243 252 250 243 238 237 236 229 222 214 204 194 192 204 224 236 237 222 210 204 203 204 206 207 204 201 201 199 195 192 191 195 203 208 202 193 188 185 184 184 182 181 183 184 187 189 192 196 199 204 212 216 211 199 183 157 138 129 121 117
253 246 241 245 249 249 243 234 236 239 230 219 215 210 204 204 211 224 236 244 234 217 208 203 202 204 206 204 202 201 201 199 197 195 196 201 208 209 204 198 192 188 188 188 188 191 195 199 202 204 205 206 206 210 212 207 195 181 162 147 138 133 128
255 252 248 245 245 244 241 235 235 236 229 221 216 213 213 216 219 225 236 248 247 228 214 207 203 201 202 203 202 201 202 202 201 200 199 199 204 210 211 210 204 197 195 196 197 200 205 210 213 215 214 210 206 204 200 194 183 169 157 149 144 140 137
251 251 247 239 234 234 235 237 233 229 231 230 224 219 217 220 223 226 230 241 251 242 227 217 209 204 201 201 201 201 201 203 203 203 203 201 201 205 211 215 215 210 206 206 208 209 212 218 221 222 222 216 207 199 187 178 172 164 157 153 150 146 141
245 247 244 230 224 230 236 239 234 229 235 239 233 226 221 219 220 224 226 230 240 249 242 230 218 210 206 204 202 201 200 202 204 205 205 204 202 203 207 213 218 220 218 217 218 219 221 225 227 227 227 221 212 199 182 173 169 166 163 159 155 151 145
242 245 245 236 230 233 239 238 234 232 237 241 236 229 224 220 219 221 222 221 222 230 242 239 226 214 209 207 205 203 202 202 204 206 206 206 205 205 207 210 215 221 224 225 227 228 230 233 234 233 231 226 218 207 191 180 175 174 172 168 163 158 152
242 241 242 239 233 229 231 233 234 236 237 233 229 229 227 222 219 221 221 218 215 209 219 235 233 221 212 208 206 206 204 203 204 206 206 207 208 208 208 210 213 217 222 227 230 233 236 239 241 240 237 233 226 218 206 196 189 185 181 178 173 168 163
243 235 230 232 230 221 217 222 230 235 233 226 224 228 231 225 221 223 224 220 213 206 209 221 231 230 220 211 208 207 207 205 204 206 206 207 209 211 211 212 214 216 219 224 228 232 236 240 244 245 242 238 233 226 220 213 206 198 191 187 185 180 176
238 232 225 224 223 217 213 216 222 226 225 223 220 222 229 229 224 224 224 219 213 208 208 212 224 234 230 220 212 209 208 207 205 206 207 208 210 212 214 214 215 217 218 221 224 228 231 235 240 243 241 238 235 231 228 223 219 212 203 196 196 197 194
226 228 230 227 219 216 214 212 215 222 226 225 215 214 225 230 226 222 219 218 216 212 207 206 215 228 233 229 220 214 210 208 205 205 207 210 212 213 215 216 217 219 220 221 222 224 227 229 233 237 238 236 235 234 233 229 225 222 215 206 203 209 216
212 216 227 228 220 217 216 213 213 221 226 221 212 212 223 228 226 222 218 218 220 215 208 204 209 222 231 231 225 219 215 211 207 205 206 209 212 215 216 217 218 220 222 224 224 224 226 227 229 232 234 235 235 235 235 234 230 227 224 219 214 215 224
209 210 219 222 218 214 214 213 214 217 218 215 212 215 223 225 224 221 217 219 221 217 209 205 206 216 224 227 226 222 218 215 212 209 208 209 212 215 216 217 219 221 224 227 227 226 228 228 228 230 233 235 236 236 237 238 237 232 228 226 225 225 227
208 209 216 221 221 218 212 208 210 213 213 215 218 220 221 221 222 220 217 219 221 218 213 207 206 213 219 221 223 222 219 216 214 213 213 213 214 216 218 219 220 222 224 227 229 228 228 229 230 231 232 235 236 237 238 239 240 237 231 228 229 231 230
205 207 214 219 221 221 217 211 209 210 212 216 219 219 216 217 219 220 220 221 222 221 218 214 210 212 217 220 220 221 220 217 215 215 216 216 216 217 219 220 221 222 224 227 229 229 228 229 231 233 234 236 237 236 237 238 239 239 236 231 230 231 232
206 208 215 220 222 223 223 221 216 215 216 218 219 218 215 215 216 216 217 219 220 221 221 218 213 211 215 217 218 218 218 216 214 215 217 219 219 219 219 220 221 221 224 227 229 231 229 228 231 233 235 236 238 237 235 236 237 237 237 234 231 231 232
207 212 217 222 225 226 228 227 223 221 222 222 223 222 219 220 220 219 217 217 217 217 217 215 212 211 212 213 213 214 214 214 212 213 216 220 222 222 221 221 221 221 222 226 229 232 231 229 229 233 235 236 238 238 235 234 235 235 235 235 232 229 229
209 219 224 227 231 233 233 231 226 223 222 223 225 226 225 225 224 224 225 224 223 223 222 216 209 205 206 208 209 210 210 211 210 210 214 219 222 224 223 222 222 221 220 223 227 231 231 230 229 232 236 237 237 237 236 235 235 234 233 234 232 229 227
207 216 223 228 232 232 232 229 226 223 220 219 221 224 227 229 227 227 230 230 232 235 234 228 218 206 200 201 205 207 208 208 208 209 213 218 222 224 223 221 221 221 220 220 224 228 231 230 229 230 234 237 237 237 237 237 236 235 234 233 232 230 227
209 213 218 223 224 226 226 224 222 222 221 219 219 221 223 224 226 229 231 233 236 234 230 229 223 212 206 206 207 209 211 210 209 211 214 217 221 223 222 219 218 219 220 220 222 225 228 229 228 228 230 235 238 237 238 238 238 238 236 234 233 230 227
214 214 216 218 218 219 221 219 219 221 222 220 221 223 223 222 222 226 229 230 228 223 221 223 219 214 221 231 224 216 215 214 213 215 217 219 220 222 223 220 217 217 219 220 220 223 227 229 229 228 228 232 236 238 238 239 240 240 239 237 235 232 227
212 211 214 217 215 215 217 218 217 218 219 220 221 223 225 225 223 224 225 221 216 218 222 221 217 219 231 239 236 227 221 219 219 219 219 221 221 220 222 223 220 218 218 219 220 222 225 228 229 228 228 229 232 236 238 239 240 241 241 240 239 235 230
208 209 213 215 215 215 217 219 220 219 218 220 221 221 223 224 223 224 223 216 212 217 219 217 219 227 233 232 232 232 226 220 221 222 221 222 222 220 222 224 223 222 220 219 220 221 223 227 228 228 228 228 230 232 235 238 239 241 242 243 242 240 234
208 209 212 213 213 214 216 218 222 223 222 221 221 221 222 223 222 223 222 216 214 218 222 224 227 229 228 225 224 226 225 221 220 221 222 223 223 222 223 224 225 225 223 221 221 221 223 226 228 229 229 229 231 232 233 236 239 241 243 245 245 244 240
211 209 210 211 211 213 216 218 221 224 224 224 223 220 222 224 224 222 221 221 222 223 224 229 231 226 222 221 218 217 220 220 218 219 221 222 223 224 224 225 226 228 226 224 224 223 224 225 228 229 229 230 232 233 234 236 238 240 242 244 245 246 244
216 212 211 212 212 212 215 218 220 223 224 225 225 223 222 224 226 224 223 223 226 225 222 223 228 226 222 220 219 217 218 219 218 217 218 219 221 224 225 226 228 230 229 228 227 226 225 226 228 230 230 230 231 233 235 237 238 239 241 243 244 245 245
220 216 213 213 214 214 215 218 220 221 223 225 226 226 224 224 225 226 225 225 225 225 222 220 223 227 224 221 220 220 220 222 222 219 217 219 221 223 224 225 227 230 232 232 231 229 228 227 228 230 231 231 231 233 235 237 238 239 240 241 241 242 242
217 213 210 211 214 216 217 219 220 221 223 225 226 227 225 223 223 224 225 225 223 223 223 221 222 227 228 225 223 223 224 226 226 223 221 220 221 223 224 224 225 228 232 234 234 233 231 229 228 230 232 233 233 233 235 237 239 239 239 239 239 239 239
214 210 206 209 213 215 216 218 219 221 223 224 224 226 225 222 221 221 222 222 221 221 223 223 223 227 229 229 226 225 226 227 227 227 225 222 222 224 225 224 224 226 230 233 235 236 235 233 230 229 232 235 235 234 235 237 238 238 237 236 236 237 237
216 212 208 209 212 213 215 217 219 220 221 223 224 224 224 223 219 217 217 218 218 220 221 222 224 227 230 231 229 227 227 228 229 229 227 225 224 225 226 226 225 225 228 232 235 236 237 237 234 232 232 234 235 234 233 233 234 234 235 234 233 234 236
217 216 214 212 212 212 213 215 218 219 220 222 224 224 224 223 219 215 215 216 216 218 220 221 223 225 228 230 231 228 226 226 228 229 229 228 226 226 228 227 225 224 226 229 233 235 237 239 238 236 234 234 234 233 232 231 230 230 233 236 234 234 237
216 217 216 215 214 212 212 214 217 218 219 221 224 225 224 223 221 217 216 217 217 217 219 221 223 224 226 229 232 231 228 225 225 227 230 230 228 228 229 229 228 226 226 229 233 235 237 239 240 240 237 234 232 231 231 231 229 227 231 236 238 237 238
215 217 216 214 214 212 211 213 215 217 218 221 224 226 226 225 223 220 218 218 219 219 220 222 223 224 226 229 233 234 232 228 226 227 229 232 233 232 231 232 233 232 229 230 233 234 234 236 238 240 239 235 232 230 231 231 229 228 230 234 237 237 237
216 218 217 213 212 210 210 212 214 216 218 221 225 227 228 227 225 222 220 220 221 220 221 223 225 225 226 229 232 234 235 233 231 229 230 232 235 235 233 233 235 235 232 231 232 232 231 232 235 237 238 236 232 230 231 231 230 229 230 233 235 236 237
218 221 220 213 208 209 211 212 215 219 221 223 226 229 229 228 226 224 223 223 223 223 223 224 226 227 227 228 229 231 234 236 236 235 233 233 234 234 232 231 234 236 234 231 231 231 228 228 231 234 235 235 234 232 231 230 230 230 231 234 236 237 236
217 221 221 214 207 209 215 217 220 224 226 226 225 226 229 228 226 225 225 225 225 225 225 226 227 229 230 231 232 232 233 236 239 238 234 230 229 231 231 230 232 236 236 231 230 230 229 227 229 232 234 234 234 233 231 231 231 232 232 233 235 236 235
217 219 221 218 214 215 219 224 226 227 228 226 223 223 226 228 225 224 226 226 227 227 227 228 229 230 232 234 236 238 239 240 242 243 240 234 228 225 226 228 230 233 234 231 228 229 229 229 229 232 234 234 233 232 231 231 231 231 230 230 232 234 234
Height
5892 5895 5896 5898 5901 5902 5903 5903 5904 5905 5907 5907 5908 5909 5910 5911 5913 5915 5916 5918 5920 5922 5925 5927 5929 5931 5932 5933 5935 5937 5939 5941 5943 5945 5946 5948 5949 5951 5953 5954 5956 5957 5958 5959 5960 5961 5962 5963 5964 5964 5965 5966 5966 5967 5967 5968 5968 5969 5969 5970 5971 5971 5972
5889 5892 5894 5896 5898 5899 5900 5902 5902 5904 5905 5906 5907 5908 5909 5911 5912 5914 5915 5917 5919 5921 5922 5925 5928 5930 5930 5932 5934 5936 5938 5940 5942 5944 5946 5948 5949 5951 5952 5954 5955 5957 5958 5959 5960 5961 5962 5963 5964 5964 5965 5966 5966 5967 5967 5968 5968 5969 5970 5971 5971 5972 5972
5886 5889 5892 5893 5895 5897 5898 5900 5901 5902 5904 5905 5906 5906 5908 5910 5911 5913 5914 5915 5918 5919 5921 5923 5926 5928 5929 5931 5933 5934 5937 5939 5941 5943 5945 5947 5949 5950 5952 5953 5955 5956 5958 5959 5960 5961 5962 5963 5964 5964 5965 5966 5967 5967 5968 5968 5969 5970 5970 5971 5971 5972 5973
5883 5886 5889 5890 5892 5895 5897 5898 5899 5901 5903 5904 5904 5905 5907 5909 5910 5912 5913 5914 5916 5918 5920 5921 5923 5925 5927 5929 5931 5933 5935 5938 5940 5942 5944 5946 5948 5950 5952 5953 5954 5956 5958 5959 5960 5961 5962 5963 5963 5964 5965 5966 5967 5967 5968 5968 5969 5970 5971 5971 5972 5972 5973
5879 5882 5885 5887 5889 5892 5895 5896 5898 5899 5901 5902 5903 5904 5906 5908 5910 5911 5912 5914 5916 5918 5919 5919 5920 5922 5925 5927 5929 5931 5933 5936 5938 5940 5942 5944 5947 5949 5951 5953 5954 5956 5957 5958 5960 5961 5962 5962 5963 5964 5965 5966 5966 5967 5968 5968 5969 5970 5971 5972 5972 5973 5973
5874 5877 5882 5885 5887 5889 5892 5894 5896 5898 5899 5900 5901 5903 5905 5907 5909 5911 5912 5913 5915 5917 5918 5919 5919 5921 5923 5925 5927 5929 5931 5934 5937 5939 5941 5943 5945 5948 5950 5952 5954 5955 5957 5958 5959 5960 5961 5962 5963 5964 5964 5965 5966 5966 5967 5968 5969 5970 5971 5972 5973 5973 5974
5869 5872 5878 5882 5885 5887 5889 5891 5894 5895 5897 5898 5899 5901 5904 5906 5908 5909 5910 5912 5914 5916 5918 5919 5920 5921 5923 5924 5925 5927 5930 5932 5935 5937 5939 5941 5944 5946 5948 5950 5953 5954 5956 5957 5959 5960 5961 5962 5963 5964 5964 5965 5965 5966 5967 5968 5969 5970 5971 5972 5973 5974 5974
5864 5867 5873 5878 5881 5884 5885 5887 5891 5893 5895 5896 5898 5900 5903 5905 5906 5908 5909 5910 5912 5914 5916 5918 5919 5920 5921 5922 5924 5925 5927 5930 5932 5935 5937 5940 5942 5944 5946 5949 5951 5953 5955 5957 5958 5959 5960 5961 5962 5963 5964 5965 5965 5966 5966 5967 5968 5970 5971 5972 5973 5974 5974
5860 5864 5868 5872 5877 5881 5882 5884 5887 5890 5892 5894 5896 5899 5901 5903 5904 5906 5908 5909 5910 5912 5914 5916 5918 5919 5920 5921 5922 5923 5925 5927 5930 5932 5935 5938 5941 5943 5945 5947 5949 5951 5953 5955 5957 5958 5960 5961 5962 5963 5964 5965 5965 5966 5966 5967 5968 5969 5970 5971 5972 5973 5974
5856 5860 5864 5868 5872 5877 5879 5881 5883 5886 5889 5892 5894 5896 5898 5901 5903 5905 5906 5908 5909 5911 5912 5914 5916 5918 5919 5920 5920 5921 5923 5925 5927 5930 5933 5936 5939 5941 5943 5945 5947 5949 5951 5953 5955 5957 5958 5959 5961 5962 5964 5964 5965 5965 5966 5966 5967 5968 5969 5970 5971 5972 5973
5850 5855 5860 5863 5868 5872 5876 5878 5880 5884 5887 5890 5893 5895 5896 5898 5901 5903 5905 5908 5909 5909 5910 5912 5913 5915 5918 5919 5919 5920 5921 5923 5925 5928 5931 5934 5936 5938 5940 5943 5945 5947 5949 5950 5952 5954 5956 5958 5959 5961 5962 5963 5964 5964 5965 5966 5966 5967 5968 5969 5970 5971 5972
5849 5852 5855 5859 5863 5868 5871 5875 5878 5881 5884 5887 5891 5892 5894 5896 5898 5901 5903 5906 5907 5907 5908 5910 5911 5913 5915 5918 5919 5919 5920 5921 5923 5926 5929 5931 5933 5936 5938 5940 5942 5945 5946 5948 5950 5952 5954 5956 5957 5959 5960 5961 5962 5963 5964 5964 5965 5966 5967 5968 5969 5970 5971
5848 5849 5851 5854 5858 5862 5867 5871 5875 5878 5880 5884 5887 5889 5891 5893 5896 5898 5901 5903 5905 5906 5907 5909 5910 5911 5914 5916 5917 5918 5919 5920 5921 5923 5925 5928 5930 5932 5935 5938 5940 5942 5944 5946 5948 5950 5952 5954 5955 5957 5958 5959 5961 5962 5962 5963 5964 5965 5966 5967 5968 5969 5970
5844 5845 5847 5850 5852 5856 5862 5868 5871 5874 5877 5880 5883 5886 5888 5891 5893 5896 5898 5900 5902 5904 5906 5907 5909 5910 5912 5914 5916 5916 5917 5918 5919 5920 5922 5924 5927 5929 5932 5935 5938 5940 5942 5944 5946 5948 5950 5951 5953 5954 5956 5957 5959 5960 5961 5962 5963 5964 5965 5966 5967 5968 5969
5841 5842 5845 5847 5850 5853 5858 5862 5866 5870 5874 5877 5880 5883 5885 5887 5890 5892 5895 5897 5898 5901 5903 5905 5907 5908 5910 5912 5913 5914 5915 5915 5916 5918 5920 5922 5924 5927 5930 5932 5935 5937 5939 5942 5944 5946 5948 5949 5950 5952 5953 5955 5956 5958 5959 5960 5961 5962 5964 5964 5965 5966 5967
5838 5839 5842 5844 5847 5850 5853 5856 5860 5864 5867 5871 5874 5877 5880 5882 5885 5889 5892 5894 5896 5898 5900 5903 5904 5906 5908 5910 5911 5912 5913 5913 5914 5915 5917 5919 5922 5924 5926 5929 5932 5934 5936 5939 5941 5943 5945 5946 5948 5949 5951 5952 5954 5955 5957 5958 5959 5960 5961 5962 5963 5964 5965
5835 5837 5839 5841 5844 5846 5849 5853 5857 5860 5863 5865 5868 5871 5874 5876 5879 5882 5886 5888 5891 5894 5896 5899 5901 5903 5905 5907 5908 5910 5911 5911 5912 5913 5914 5916 5919 5921 5923 5926 5928 5931 5933 5936 5938 5940 5942 5944 5945 5947 5948 5950 5951 5953 5954 5955 5956 5957 5958 5959 5961 5962 5963
5831 5833 5835 5837 5841 5844 5847 5850 5853 5856 5859 5861 5864 5867 5870 5873 5875 5878 5880 5882 5885 5886 5888 5891 5895 5899 5902 5903 5904 5907 5909 5909 5910 5911 5912 5914 5916 5918 5920 5922 5925 5928 5930 5932 5934 5936 5939 5941 5943 5944 5945 5947 5949 5950 5952 5953 5953 5954 5955 5956 5958 5960 5961
5827 5829 5831 5833 5837 5841 5844 5847 5849 5852 5854 5857 5860 5863 5866 5870 5873 5875 5878 5880 5882 5883 5885 5887 5889 5891 5895 5898 5901 5903 5905 5907 5907 5908 5910 5911 5913 5915 5917 5920 5922 5925 5927 5929 5931 5933 5935 5938 5940 5941 5942 5944 5946 5947 5948 5950 5950 5951 5952 5953 5955 5956 5958
5823 5825 5827 5830 5833 5837 5841 5843 5845 5847 5849 5852 5855 5858 5862 5866 5870 5872 5874 5877 5881 5884 5889 5892 5892 5890 5891 5894 5898 5900 5902 5904 5905 5906 5908 5909 5911 5912 5914 5917 5919 5921 5923 5925 5927 5929 5932 5934 5937 5938 5939 5941 5943 5944 5945 5946 5947 5948 5949 5950 5952 5953 5955
5818 5821 5823 5826 5828 5832 5836 5839 5840 5842 5844 5847 5850 5853 5857 5860 5864 5866 5868 5872 5877 5882 5887 5893 5896 5897 5895 5895 5896 5898 5900 5901 5903 5904 5905 5907 5908 5910 5912 5914 5915 5917 5919 5922 5924 5926 5928 5930 5933 5935 5937 5938 5939 5941 5942 5943 5944 5945 5946 5947 5948 5950 5952
5814 5817 5820 5822 5824 5827 5831 5834 5837 5839 5841 5843 5846 5849 5851 5854 5857 5860 5863 5868 5873 5878 5883 5888 5892 5896 5897 5896 5896 5896 5897 5898 5900 5902 5903 5905 5906 5908 5909 5911 5912 5914 5915 5918 5920 5922 5924 5926 5928 5931 5933 5935 5936 5938 5939 5940 5941 5942 5943 5944 5945 5947 5949
5810 5813 5815 5817 5820 5822 5826 5829 5833 5836 5838 5840 5842 5845 5847 5850 5854 5856 5858 5863 5869 5874 5879 5883 5887 5890 5893 5894 5894 5894 5894 5896 5897 5899 5901 5902 5904 5906 5907 5908 5909 5911 5912 5914 5917 5919 5920 5922 5924 5926 5929 5931 5933 5934 5936 5937 5938 5939 5940 5941 5942 5944 5946
5805 5808 5810 5813 5815 5817 5820 5824 5827 5831 5834 5836 5838 5841 5844 5847 5850 5853 5856 5860 5866 5870 5874 5878 5882 5886 5889 5890 5891 5891 5892 5893 5894 5896 5898 5900 5902 5903 5904 5905 5907 5908 5910 5911 5913 5915 5917 5918 5919 5922 5924 5927 5929 5930 5932 5933 5934 5936 5937 5938 5939 5941 5943
5799 5802 5805 5808 5810 5813 5816 5819 5822 5825 5829 5832 5834 5837 5839 5842 5846 5851 5854 5858 5862 5866 5870 5874 5878 5882 5885 5885 5886 5888 5889 5890 5891 5893 5895 5897 5899 5900 5901 5902 5903 5905 5906 5908 5910 5911 5913 5914 5916 5918 5920 5923 5925 5926 5928 5929 5931 5932 5933 5934 5935 5937 5939
5793 5796 5800 5803 5806 5808 5811 5814 5817 5820 5824 5827 5830 5833 5835 5838 5842 5847 5852 5855 5858 5862 5867 5872 5875 5878 5879 5880 5881 5883 5884 5886 5888 5890 5892 5894 5895 5897 5898 5899 5900 5902 5903 5905 5906 5908 5909 5911 5912 5914 5916 5918 5920 5922 5924 5926 5927 5929 5930 5931 5932 5933 5935
5786 5789 5794 5798 5801 5804 5807 5809 5812 5815 5819 5822 5825 5828 5831 5834 5837 5843 5847 5851 5855 5859 5864 5868 5871 5872 5873 5874 5876 5878 5880 5883 5885 5887 5889 5890 5892 5893 5894 5896 5897 5898 5900 5901 5903 5904 5906 5908 5909 5910 5912 5914 5916 5918 5920 5922 5923 5925 5926 5927 5928 5929 5931
5780 5782 5786 5792 5796 5799 5802 5805 5808 5811 5814 5817 5820 5823 5827 5830 5834 5838 5842 5846 5851 5856 5860 5862 5865 5866 5868 5870 5872 5874 5876 5879 5881 5883 5885 5887 5888 5890 5891 5893 5894 5895 5896 5898 5899 5901 5902 5904 5906 5907 5909 5910 5912 5914 5916 5917 5919 5921 5922 5923 5924 5925 5927
5775 5776 5779 5785 5790 5794 5798 5800 5803 5806 5809 5812 5815 5818 5822 5826 5831 5834 5838 5843 5848 5852 5854 5856 5859 5861 5863 5865 5868 5870 5872 5875 5877 5879 5881 5883 5885 5886 5888 5889 5890 5892 5893 5894 5896 5897 5899 5901 5903 5904 5905 5907 5908 5910 5911 5913 5914 5916 5917 5918 5920 5921 5922
5769 5772 5775 5779 5785 5789 5793 5796 5799 5802 5805 5808 5811 5814 5817 5821 5826 5830 5835 5840 5844 5846 5848 5851 5853 5856 5859 5861 5864 5866 5868 5870 5873 5875 5877 5879 5881 5882 5884 5886 5887 5888 5890 5891 5892 5894 5895 5897 5899 5901 5902 5903 5904 5906 5908 5909 5910 5911 5912 5914 5915 5916 5918
5764 5767 5770 5774 5779 5783 5787 5790 5794 5797 5800 5803 5806 5809 5812 5816 5821 5826 5831 5835 5838 5841 5843 5846 5849 5852 5855 5858 5860 5862 5864 5866 5868 5870 5873 5875 5877 5878 5880 5882 5883 5885 5886 5887 5888 5890 5892 5893 5895 5897 5898 5899 5900 5902 5904 5905 5906 5907 5908 5909 5910 5912 5913
5757 5761 5765 5769 5773 5776 5781 5785 5788 5792 5796 5798 5801 5804 5807 5811 5816 5821 5826 5830 5833 5835 5838 5841 5844 5847 5851 5854 5856 5858 5860 5862 5864 5866 5868 5870 5872 5874 5876 5878 5879 5880 5882 5883 5885 5887 5888 5890 5891 5893 5895 5896 5897 5898 5899 5901 5902 5903 5903 5904 5906 5907 5909
5750 5754 5759 5763 5767 5771 5775 5779 5783 5787 5791 5794 5796 5799 5803 5806 5810 5815 5820 5823 5827 5830 5833 5836 5839 5842 5846 5849 5851 5853 5855 5857 5860 5862 5863 5865 5867 5869 5871 5873 5874 5876 5878 5880 5882 5884 5885 5886 5888 5889 5891 5892 5893 5894 5895 5896 5898 5899 5900 5900 5902 5903 5904
5744 5748 5754 5758 5762 5766 5770 5774 5778 5782 5786 5789 5792 5795 5799 5802 5805 5809 5813 5817 5821 5825 5828 5830 5833 5837 5840 5843 5846 5848 5850 5853 5855 5857 5858 5860 5862 5864 5866 5868 5870 5873 5875 5877 5879 5880 5882 5883 5884 5885 5887 5888 5889 5890 5891 5893 5894 5896 5896 5896 5897 5898 5899
5739 5743 5748 5753 5757 5760 5765 5769 5773 5777 5781 5785 5788 5791 5795 5798 5800 5804 5808 5811 5815 5818 5821 5824 5827 5831 5834 5837 5840 5842 5844 5846 5848 5850 5853 5855 5857 5860 5862 5865 5866 5868 5871 5873 5874 5876 5877 5879 5880 5881 5882 5883 5885 5886 5888 5890 5891 5892 5892 5892 5892 5893 5894
5734 5737 5742 5748 5753 5756 5760 5764 5768 5773 5777 5781 5784 5787 5790 5793 5796 5799 5802 5805 5809 5812 5815 5818 5821 5824 5827 5830 5832 5834 5837 5839 5841 5844 5847 5850 5853 5855 5857 5859 5861 5863 5866 5868 5869 5871 5872 5874 5876 5877 5877 5878 5881 5883 5884 5886 5886 5887 5887 5887 5888 5889 5890
5729 5732 5737 5743 5748 5752 5755 5758 5763 5767 5772 5776 5780 5783 5785 5788 5791 5794 5797 5799 5803 5806 5809 5812 5815 5818 5821 5824 5826 5828 5830 5833 5835 5838 5841 5843 5846 5848 5851 5854 5856 5858 5861 5863 5865 5866 5868 5870 5871 5872 5873 5875 5877 5878 5880 5880 5881 5883 5884 5884 5884 5885 5886
5723 5727 5731 5737 5743 5747 5751 5754 5757 5762 5766 5771 5775 5778 5781 5784 5787 5790 5792 5794 5797 5801 5803 5806 5809 5812 5815 5819 5822 5824 5827 5830 5831 5833 5835 5837 5838 5839 5843 5848 5851 5853 5856 5859 5860 5861 5863 5865 5867 5868 5870 5871 5872 5873 5875 5876 5877 5879 5880 5880 5881 5881 5882